Regional Weather Roundup
Issued by NWS

Home | Current Version | Previous Version | Text Only | Print | Product List | Glossary Off
Versions: 1 2 3 4 5 6 7 8 9 10 11 12 13 14 15 16 17 18 19 20 21 22 23 24 25 26 27 28 29 30 31 32 33 34 35 36 37 38 39 40 41 42 43 44 45 46 47 48 49 50

000
ASUS43 KDMX 231401
RWRIA

WEATHER ROUNDUP FOR IOWA
NATIONAL WEATHER SERVICE DES MOINES IA
900 AM CDT TUE MAY 23 2017

NOTE: "FAIR" INDICATES FEW OR NO CLOUDS BELOW 12,000 FEET WITH NO
SIGNIFICANT WEATHER AND/OR OBSTRUCTIONS TO VISIBILITY.

* - THESE STATIONS ARE NOT NWS STATIONS...THUS NOT UNDER NWS
QUALITY CONTROL.  THEY ALSO DO NOT REPORT WEATHER SUCH
AS PRECIPITATION OR FOG.

IAZ001>003-012>014-020>022-031>034-043>046-231500-
   NORTHWEST IOWA

CITY           SKY/WX    TMP DP  RH WIND       PRES   REMARKS
CARROLL *      CLOUDY    54  46  76 NW17      29.87R
CHEROKEE *     CLOUDY    50  47  87 NW8G16    29.87F
DENISON *      CLOUDY    50  45  81 NW13G21   29.90S
LE MARS *      CLOUDY    52  45  76 NW15      29.90S
ORANGE CITY *  CLOUDY    48  46  93 NW10      29.89R
SHELDON *      CLOUDY    48  45  87 NW12        N/A
SIOUX CITY     CLOUDY    51  46  83 NW14      29.90F
SPENCER        CLOUDY    49  45  86 NW12      29.86S
STORM LAKE *   CLOUDY    48  45  87 NW16G22   29.87S
$$

IAZ055>058-069>071-079>083-090>094-231500-
   SOUTHWEST IOWA

CITY           SKY/WX    TMP DP  RH WIND       PRES   REMARKS
ATLANTIC *     MOSUNNY   54  46  76 NW15      29.89S
AUDUBON *      SUNNY     54  46  76 NW12G17   29.88S
CLARINDA *     SUNNY     55  46  71 N15       29.92S
COUNCIL BLFS * MOSUNNY   52  46  82 NW10G17   29.90F
CRESTON *      MOSUNNY   54  48  82 NW14      29.88S HAZE
HARLAN  *      CLOUDY    52  46  82 NW16      29.92S
LAMONI         PTSUNNY   56  49  77 NW12G17   29.86F
RED OAK *      SUNNY     55  45  67 N13       29.90S
SHENANDOAH *   SUNNY     55  45  67 N15       29.92R
$$

IAZ047>049-059>061-072>074-084-231500-
   CENTRAL IOWA

CITY           SKY/WX    TMP DP  RH WIND       PRES   REMARKS
AMES           MOSUNNY   55  49  80 NW13      29.83F
ANKENY *       MOSUNNY   55  50  82 VRB7G14   29.85S
BOONE *        PTSUNNY   54  50  87 NW10      29.83S
DES MOINES     MOSUNNY   56  48  74 N13       29.84S
GRINNELL*      CLOUDY    55  49  82 NW13      29.84R
MARSHALLTOWN   CLOUDY    54  51  90 NW12      29.81F
NEWTON *       MOSUNNY   54  50  87 NW8       29.82S
PELLA *        PTSUNNY   56  49  79 NW9       29.85R
PERRY *          N/A     54  49  82 NW12      29.86S
$$

IAZ004>006-015-016-023>025-035-036-231500-
   NORTH CENTRAL IOWA

CITY           SKY/WX    TMP DP  RH WIND       PRES   REMARKS
ALGONA *       CLOUDY    50  48  93 NW7       29.85S
CLARION *      CLOUDY    50  48  93 N14       29.83S
ESTHERVILLE    CLOUDY    46  46 100 N8        29.85R
FORT DODGE *   CLOUDY    50  46  87 NW8       29.85S
MASON CITY     CLOUDY    51  46  83 NW10      29.84R
FOREST CITY *  CLOUDY    50  41  71 NW6       29.83S
WEBSTER CITY * CLOUDY    54  48  82 NW14      29.82S
IOWA FALLS *   CLOUDY    53  49  85 NW10      29.84S
$$

IAZ007>011-017>019-026>030-037>042-050>054-066-231500-
   NORTHEAST IOWA

CITY           SKY/WX    TMP DP  RH WIND       PRES   REMARKS
CEDAR RAPIDS   CLOUDY    53  53 100 NW12      29.79S
CHARLES CITY * CLOUDY    54  52  94 NW12      29.81S
CLINTON *      CLOUDY    56  53  90 W9        29.79F
DECORAH *      CLOUDY    52  50  93 W5        29.77S
DUBUQUE        CLOUDY    54  51  90 W8        29.78S
MONTICELLO *   CLOUDY    55  52  88 W7        29.78S
OELWEIN *      CLOUDY    54  52  94 NW16      29.79F
WATERLOO       CLOUDY    53  50  89 NW7       29.80S
$$

IAZ064-065-067-068-078-231500-
   EAST CENTRAL IOWA

CITY           SKY/WX    TMP DP  RH WIND       PRES   REMARKS
DAVENPORT      CLOUDY    56  52  86 W8        29.79F
IOWA CITY      CLOUDY    58  51  78 NW7       29.80F
MT. PLEASANT * CLOUDY    56  54  93 W7        29.81R
MUSCATINE *    CLOUDY    59  54  82 W7        29.80S
QUAD CITIES    CLOUDY    60  54  80 SW6       29.79S
$$

IAZ062-063-075>077-085>089-095>099-231500-
   SOUTHEAST IOWA

CITY           SKY/WX    TMP DP  RH WIND       PRES   REMARKS
BURLINGTON     CLOUDY    58  56  93 W6        29.80F
FAIRFIELD *    CLOUDY    55  52  88 NW10      29.81S
FORT MADISON * CLOUDY    57  55  94 W5        29.81S
KEOKUK *       CLOUDY    57  55  94 W7        29.80S
OSKALOOSA *    PTSUNNY   54  50  87 NW12      29.83S
OTTUMWA        CLOUDY    55  52  89 NW14      29.82S
WASHINGTON *   CLOUDY    57  54  88 NW9       29.81S
$$

ABBREVIATIONS USED IN REMARKS
   TC - TEMPERATURES IN CELSIUS
  WCI - WIND CHILL INDEX
   HX - HEAT INDEX
  VSB - VISIBILITY
$$




USA.gov is the U.S. government's official web portal to all federal, state and local government web resources and services.